Location: Burzi?i
(45.0869°N, 16.0577°E)
Time: 11:50:45
(UTC+00:00)

USA 306 - Pass Details

Date: 29 October 2020
Orbit: 569 x 577 km, 54.0° (Epoch: 22 November)

Event Time Altitude Azimuth Distance (km) Brightness Sun altitude
Rises 17:57:50 0° 303° (WNW) 2,785 7.4 -23.5°
Reaches altitude 10° 18:00:07 10° 299° (WNW) 1,882 6.4 -23.9°
Maximum altitude 18:04:19 59° 221° (SW) 664 3.3 -24.6°
Enters shadow 18:04:26 59° 213° (SSW) 666 3.2 -24.7°
